Theta_e
292 288 285 288 288 285 286 284 283 286 290 289 288 289 291 293 292 293 292 293 293 294 298 297 297 300 308 317 320 323 323 327 330 331 329 328 327 327 328 327 323 323 323 320
289 284 289 290 289 287 285 284 283 287 290 290 288 288 291 291 293 294 294 293 293 292 292 295 296 295 298 308 318 321 323 325 328 330 331 329 328 327 328 327 326 324 323 321
285 287 291 290 287 286 284 283 284 286 286 285 285 284 286 288 290 292 293 294 294 294 294 295 295 295 295 298 310 319 321 324 326 328 324 312 314 312 311 314 323 323 322 320
287 290 290 288 287 288 283 288 288 286 284 280 284 277 283 287 289 291 292 292 291 291 293 294 294 295 294 297 303 315 320 322 324 325 322 323 323 320 320 320 319 315 321 320
286 288 288 286 288 289 287 289 287 285 282 281 281 280 282 284 286 290 290 290 291 293 292 292 293 295 296 296 302 313 317 319 321 319 321 321 321 322 313 316 314 315 309 316
287 291 290 290 289 289 291 288 286 284 282 277 281 281 279 283 286 287 288 290 293 295 295 295 296 296 296 298 302 309 314 317 318 317 319 318 320 308 309 310 313 311 309 307
287 288 290 291 288 289 287 284 277 276 275 276 280 279 281 287 288 288 290 290 293 294 294 294 295 295 297 299 303 307 310 309 314 314 314 315 315 308 310 311 313 309 304 301
283 282 289 291 289 287 285 285 278 271 273 276 281 279 284 289 291 291 291 291 293 293 294 294 294 294 295 296 298 303 305 306 308 311 311 309 308 309 310 310 310 310 308 308
283 283 289 290 291 291 286 282 285 279 269 274 278 282 287 289 290 293 294 293 292 294 294 294 295 294 295 295 297 299 300 302 304 305 306 305 305 304 308 306 306 306 304 301
286 281 286 288 290 290 288 290 283 281 273 271 276 278 281 286 290 291 291 292 292 293 293 294 294 295 296 296 297 299 300 300 301 301 301 301 301 302 304 301 300 299 298 296
288 285 283 287 285 285 286 285 285 285 281 274 272 278 285 289 291 290 290 291 291 292 292 293 294 295 295 296 296 297 298 299 299 299 299 299 299 298 298 298 296 293 291 291
289 286 280 284 288 290 289 287 286 279 277 279 279 279 288 291 292 293 292 292 291 291 292 293 294 294 294 295 296 296 297 297 297 298 298 298 297 295 295 294 293 291 290 288
292 285 275 281 285 286 284 286 288 286 283 279 277 279 289 289 290 291 292 293 292 291 291 291 291 291 292 292 293 294 295 295 296 296 296 295 295 294 293 292 291 289 288 287
295 286 283 280 282 287 284 286 288 288 279 280 282 282 287 287 290 291 291 292 290 291 291 291 291 291 291 292 291 292 293 294 295 294 294 294 294 293 293 291 289 288 287 286
292 283 285 285 287 286 286 285 287 286 286 283 285 285 287 291 291 290 290 290 289 290 290 290 290 290 290 291 291 292 292 293 293 293 293 293 293 292 291 289 288 287 286 285
292 284 285 283 287 286 283 287 285 285 285 286 285 287 292 292 290 287 287 287 287 288 288 289 289 289 289 289 289 290 289 290 290 292 291 291 291 289 289 288 287 285 284 284
288 285 284 281 284 284 280 284 286 284 286 287 285 288 290 287 286 286 286 288 287 288 288 288 288 288 288 288 289 287 287 288 288 288 288 288 288 288 288 287 284 284 283 283
286 285 284 279 280 274 281 283 287 287 286 289 286 285 286 287 286 287 287 287 287 288 289 289 288 287 287 287 287 286 285 285 286 287 287 287 285 286 286 284 285 284 282 282
290 286 281 277 270 277 281 283 284 284 284 289 287 284 284 285 285 283 288 288 288 288 289 289 288 287 286 285 284 283 283 283 284 284 284 284 285 287 286 286 285 285 283 282
286 287 282 274 270 269 277 282 287 286 279 283 286 284 284 284 279 285 286 287 288 288 288 288 288 285 285 285 283 283 283 283 282 283 283 282 282 281 282 283 282 280 279 283
281 283 281 277 273 272 280 283 286 278 280 282 284 284 284 281 283 285 284 285 285 285 285 286 284 283 283 283 282 282 282 282 282 282 282 281 280 279 279 279 277 276 276 277
279 279 279 277 273 273 282 282 281 282 282 283 283 283 283 284 284 283 283 283 283 282 282 282 280 280 281 280 280 280 280 282 280 280 279 278 277 277 278 274 274 274 276 277
275 278 277 279 277 281 282 281 284 283 282 282 282 283 283 283 282 281 282 281 280 279 280 278 275 277 277 277 277 277 279 279 278 276 276 275 274 275 274 276 280 279 279 279
276 279 277 277 279 282 283 284 284 283 283 282 282 282 283 282 282 281 279 279 278 277 276 274 273 274 275 273 275 273 275 275 272 273 274 275 274 274 272 280 280 280 279 279
277 280 275 274 280 282 283 283 283 283 282 282 281 281 280 281 279 277 275 275 275 274 273 272 272 272 271 271 271 270 270 270 273 274 274 274 273 271 273 278 280 280 281 281
278 278 278 276 283 282 284 284 283 282 280 279 280 278 276 276 275 273 273 273 272 270 270 269 269 268 268 268 268 267 263 264 268 272 275 275 273 272 272 276 278 281 284 284
Wind_Speed
2 4 7 10 8 4 6 4 3 3 1 3 7 8 11 10 7 11 11 11 11 13 12 9 9 11 10 10 12 14 14 14 11 10 11 10 11 9 8 9 12 13 12 13
5 5 9 5 5 3 3 3 3 4 0 5 5 11 10 9 10 12 12 12 13 9 7 10 9 8 11 17 17 14 16 15 15 12 11 8 9 7 9 9 12 14 14 14
7 3 7 7 5 6 4 5 5 6 3 2 5 9 6 6 6 7 10 12 10 11 11 10 9 10 9 11 15 17 18 18 16 15 8 3 4 3 2 3 8 10 14 14
5 3 7 4 5 6 5 7 5 4 3 4 2 8 6 5 9 8 13 9 9 10 9 8 8 9 8 11 9 14 15 15 14 15 13 16 14 11 10 8 6 7 13 14
8 9 6 5 7 7 6 4 4 3 4 3 4 1 8 3 6 12 9 9 8 9 7 9 9 8 7 6 9 10 9 10 12 15 16 14 13 9 4 5 9 11 6 9
6 1 5 8 3 5 9 7 8 5 3 4 8 7 6 5 6 5 4 8 10 9 9 8 6 7 6 5 2 5 8 10 11 13 14 16 15 7 7 7 8 6 5 5
1 3 1 4 8 3 4 7 2 4 2 8 3 2 8 10 7 7 9 8 8 7 7 8 9 9 8 8 5 3 1 3 7 8 8 10 8 8 10 9 8 8 6 4
9 5 8 5 8 10 8 9 8 9 5 4 3 7 8 6 7 5 5 7 9 10 8 7 7 7 8 8 7 5 4 3 3 4 5 6 7 6 6 7 6 7 7 8
7 6 1 2 5 10 7 6 7 7 3 4 5 7 11 6 9 8 11 11 10 10 10 9 9 7 7 7 6 4 2 1 4 6 5 6 6 6 7 6 5 4 4 4
8 3 1 2 3 3 6 9 5 2 3 3 4 4 7 2 6 5 10 9 9 8 10 9 7 7 7 6 6 6 3 2 2 3 4 4 5 5 4 4 5 5 4 4
6 5 0 3 7 10 4 3 3 5 6 7 2 7 7 9 7 7 5 5 5 7 8 7 7 7 7 6 6 6 5 3 2 3 3 5 5 5 4 4 4 6 4 6
8 6 5 8 3 3 4 8 7 7 5 4 4 8 4 8 8 6 6 4 1 2 5 7 7 7 7 7 7 7 6 5 3 4 4 4 3 3 4 5 6 5 6 5
9 4 4 5 4 2 4 4 5 4 3 8 7 6 4 4 5 5 4 4 3 7 8 8 8 8 8 7 6 6 6 6 5 3 3 4 4 5 6 5 5 5 5 6
6 4 9 13 4 7 6 6 7 9 5 5 14 5 7 10 2 4 6 6 8 7 7 6 7 7 8 8 9 7 7 6 5 3 4 5 7 7 6 6 6 6 6 5
4 6 3 3 5 4 2 6 8 15 15 12 12 17 6 5 3 6 5 5 7 7 7 7 7 9 10 12 11 9 8 7 5 5 5 7 7 6 5 5 6 6 6 6
4 3 4 1 4 5 1 7 6 4 3 7 3 13 4 5 7 7 7 7 7 7 8 8 8 8 8 8 10 10 10 9 6 6 6 5 5 5 6 6 6 6 6 6
3 5 4 5 5 6 7 10 15 5 5 6 12 5 6 4 7 5 5 6 5 5 5 7 7 7 7 7 7 9 11 9 8 6 6 7 6 6 6 6 5 6 7 5
10 5 2 4 4 6 3 1 7 17 4 11 3 5 5 7 7 6 4 5 4 5 5 5 5 6 6 7 7 7 7 7 8 8 8 6 4 5 4 3 5 5 4 8
3 5 4 5 3 6 3 5 8 10 12 15 10 7 6 7 6 2 2 3 1 2 4 4 3 3 6 6 7 7 7 6 7 8 8 8 7 8 6 6 6 6 4 4
3 2 5 3 6 11 5 3 6 5 8 8 11 9 9 8 4 4 2 2 4 4 3 5 6 4 6 9 7 8 8 8 7 7 8 6 5 5 6 6 6 3 3 6
5 4 11 6 4 9 7 4 5 8 7 5 7 8 8 5 3 5 4 4 4 4 6 6 5 5 6 7 7 8 7 7 8 8 8 6 6 5 5 5 2 2 3 2
9 8 6 4 3 12 7 4 9 4 4 6 6 6 6 6 5 5 5 5 6 7 7 8 7 7 6 7 7 8 7 7 8 8 8 8 7 5 4 3 3 1 2 3
3 7 8 9 7 2 4 4 2 3 8 5 8 6 7 6 4 2 3 5 4 4 2 2 4 8 5 5 5 10 10 10 10 9 8 7 7 5 4 3 3 3 3 3
4 2 4 4 2 4 3 3 5 5 8 8 7 7 5 6 4 4 3 4 5 4 5 4 5 6 8 6 7 5 10 10 8 9 7 7 6 7 5 3 3 3 2 3
5 8 6 2 3 6 2 3 6 7 8 9 7 5 6 6 5 4 3 3 4 6 6 7 7 8 10 9 9 6 9 10 12 11 8 7 4 5 5 4 4 3 3 4
6 7 6 6 10 5 7 7 5 7 6 5 6 5 5 6 4 2 1 3 4 6 7 8 7 8 9 9 9 7 5 7 9 10 9 8 6 4 3 4 5 7 12 14
Wind_Direction
34 120 192 194 191 134 139 157 181 248 125 167 240 265 267 285 304 285 263 267 260 248 262 240 223 211 209 211 195 198 192 194 183 190 194 194 203 197 192 190 189 186 184 182
57 214 214 116 125 132 123 140 250 293 336 164 300 274 267 265 256 245 264 266 259 269 270 266 251 210 199 208 207 199 200 190 193 194 199 202 197 203 200 189 187 192 185 177
159 219 140 142 144 155 195 172 203 216 6 6 351 287 275 287 263 275 257 252 264 253 272 273 261 228 205 206 203 202 199 195 195 188 165 88 81 68 104 196 186 191 183 179
215 183 135 146 180 141 195 203 156 143 81 236 21 285 301 283 302 290 275 268 287 275 259 260 263 264 222 226 211 206 202 197 190 175 179 190 199 198 205 192 184 176 180 187
229 168 144 167 194 169 210 118 124 91 101 28 326 10 274 304 278 264 290 302 301 311 301 300 302 278 270 219 198 196 190 184 178 177 186 190 201 206 169 179 187 187 163 185
185 166 161 180 101 153 152 82 51 56 80 298 199 179 276 224 215 298 292 338 331 339 343 350 358 3 359 350 226 178 172 184 175 180 188 194 203 163 156 169 184 188 203 177
122 203 169 139 89 46 96 88 7 353 12 231 95 141 245 265 258 238 297 326 332 326 328 339 359 3 359 9 9 8 145 140 172 181 188 194 195 174 186 183 192 177 173 192
157 231 166 189 168 167 192 156 162 192 195 251 114 236 251 231 271 313 317 340 356 356 345 345 0 2 13 18 25 44 49 56 143 167 161 171 169 183 189 185 182 193 199 210
154 237 13 154 148 147 192 197 155 104 33 62 227 292 305 321 4 33 28 26 8 1 357 357 0 14 9 15 16 13 6 116 180 178 172 193 191 181 192 179 169 176 184 169
195 129 12 150 108 46 158 156 89 10 156 266 275 262 234 133 82 26 28 20 355 356 2 2 8 4 359 360 352 10 28 292 243 218 214 207 202 203 189 157 187 192 179 162
142 109 342 112 217 157 140 172 106 125 154 173 220 254 216 143 120 95 53 23 6 7 6 359 354 353 350 347 358 351 3 354 318 231 221 208 218 203 174 198 206 205 179 182
183 131 168 201 240 196 160 196 149 145 223 226 161 256 163 133 131 113 73 36 37 27 360 356 353 352 357 348 343 342 339 337 330 295 265 244 217 183 190 211 223 195 207 188
173 187 77 359 347 353 188 189 172 121 86 202 162 247 141 151 132 100 50 358 25 37 25 12 10 10 348 338 325 335 325 305 278 256 257 271 248 219 223 221 217 204 201 205
92 123 193 210 186 144 180 188 193 192 199 157 232 167 188 241 3 73 25 11 70 46 26 14 11 2 357 2 1 355 331 317 299 286 263 249 241 226 225 213 203 203 206 206
127 149 134 72 112 96 149 169 183 202 215 197 240 228 193 210 14 99 110 56 52 33 21 12 13 14 5 5 358 356 348 339 323 281 258 251 256 248 238 224 212 208 198 210
0 122 119 157 185 110 245 224 225 246 223 276 272 262 189 84 90 58 53 60 46 24 11 6 7 7 6 357 349 340 342 342 335 309 279 276 268 263 249 247 230 217 210 197
100 135 140 162 139 82 292 212 207 210 211 169 222 232 164 95 96 104 87 69 53 28 13 6 358 346 345 350 343 341 332 326 341 343 328 311 278 252 247 237 210 219 212 194
160 136 108 136 110 208 227 50 206 204 220 215 107 128 117 135 119 114 89 102 63 23 8 11 354 341 341 336 339 330 330 337 346 350 348 335 306 286 288 251 235 227 199 212
179 129 127 155 207 310 257 180 143 167 247 210 159 150 132 128 114 97 102 92 89 39 339 325 334 320 325 332 327 327 339 344 353 352 341 337 332 312 292 258 240 236 227 238
71 121 143 129 170 211 249 167 136 122 277 170 145 156 146 142 129 189 153 52 31 15 8 340 341 341 345 339 340 345 344 343 350 340 321 303 299 285 277 258 251 227 222 237
173 185 196 164 214 284 240 164 145 140 237 133 120 137 137 147 165 122 64 45 23 10 359 3 359 348 326 330 340 342 339 333 325 321 316 315 324 310 277 272 243 243 246 244
171 153 188 136 163 255 161 69 162 193 49 114 112 124 117 120 97 85 81 62 41 21 7 13 356 341 336 351 349 332 325 321 325 326 323 328 328 328 309 274 290 314 242 258
216 184 174 174 198 250 190 170 131 153 132 136 117 121 120 121 115 61 33 42 40 35 15 341 337 322 333 354 356 333 326 327 327 327 325 323 321 321 321 314 294 282 246 248
267 185 134 94 211 155 131 69 97 108 114 121 120 126 114 121 112 97 67 25 7 360 355 352 342 335 325 348 344 310 326 332 323 314 312 311 318 318 313 285 271 261 253 254
192 139 152 313 53 74 37 107 136 110 101 98 76 90 106 112 94 79 34 0 353 344 349 350 340 329 321 332 333 335 346 340 330 321 310 301 293 287 293 276 268 254 251 247
185 163 167 214 175 146 170 163 128 120 114 97 119 106 76 68 86 78 21 17 7 340 332 330 328 322 318 323 322 329 346 346 328 317 315 312 307 294 280 289 298 285 277 277